[[{"header":{"parameterUnit":"m.s-1","parameterCategory":2,"la1":30.2992,"la2":30.254,"lo1":-89.0895,"lo2":-89.0443,"dy":0.0025,"dx":0.0025,"nx":19,"ny":19,"refTime":"2026-05-17T21:00:00:Z","depth":"0","parameterNumber":2,"parameterNumberName":"U-component_of_CURRENTS"},"data":[0,0,0,-0.3029,-0.3031,-0.3106,-0.3106,-0.3128,-0.3128,0,0,0,0,0,0,0,0,0,0,0,-0.2984,-0.2984,-0.3029,-0.3032,-0.3106,-0.3106,-0.3128,-0.3128,0,0,0,0,0,0,0,0,0,0,0,-0.2984,-0.2984,-0.2985,-0.3032,-0.3106,-0.3106,-0.3128,-0.3088,0,0,0,0,0,0,0,0,0,0,-0.3023,-0.2988,-0.2984,-0.2985,-0.3032,-0.3106,-0.3106,-0.3086,-0.309,-0.3078,0,-0.3085,0,-0.312,-0.3129,-0.3129,0,0,0,-0.302,-0.2984,-0.3018,-0.2985,-0.3033,-0.3106,-0.3069,-0.3089,-0.3093,-0.3082,-0.3086,-0.3088,-0.312,-0.3129,-0.3129,-0.3183,-0.3184,0,0,-0.3016,-0.2984,-0.3016,-0.3021,-0.3047,-0.3067,-0.3071,-0.3092,-0.3084,-0.3086,-0.309,-0.3121,-0.313,-0.313,-0.3183,-0.3184,0,0,0,-0.3012,-0.2981,-0.3015,-0.3019,-0.3045,-0.3069,-0.3075,-0.3082,-0.3098,-0.309,-0.3121,-0.313,-0.313,-0.3182,-0.3183,-0.3213,0,0,0,-0.3009,-0.2981,-0.3013,-0.2993,-0.3045,-0.3074,-0.3064,-0.3096,-0.31,-0.3121,-0.313,-0.313,-0.3182,-0.3183,-0.3211,-0.3218,0,0,0,-0.2982,-0.2978,-0.2988,-0.2992,-0.3034,-0.3075,-0.3091,-0.3098,-0.3119,-0.3129,-0.313,-0.3181,-0.3183,-0.3209,-0.3215,-0.3202,0,0,0,-0.2945,-0.2966,-0.2986,-0.3024,-0.3033,-0.3111,-0.3091,-0.3131,-0.3143,-0.313,-0.3182,-0.3183,-0.3209,-0.3213,-0.3201,-0.2994,-0.2982,0,0,-0.2959,-0.2966,-0.2996,-0.3017,-0.3092,-0.31,-0.3168,-0.3167,-0.3156,-0.3166,-0.3168,-0.3212,-0.3215,-0.3202,-0.3061,-0.3047,0,0,0,-0.2994,-0.3005,-0.3034,-0.3079,-0.3138,-0.3181,-0.32,-0.3203,-0.3214,-0.3172,-0.3227,-0.3228,-0.3219,-0.3092,-0.3082,-0.301,-0.3188,-0.3188,-0.3188,-0.2937,-0.3001,-0.3046,-0.3121,-0.3172,-0.3237,-0.3266,-0.3272,-0.3255,-0.3265,-0.3264,-0.3292,-0.3159,-0.3148,-0.3078,-0.3281,-0.3281,-0.3281,-0.3282,-0.2944,-0.2961,-0.3048,-0.3112,-0.3183,-0.3233,-0.3309,-0.3311,-0.3329,-0.3312,-0.33,-0.3145,-0.3137,-0.3067,-0.3284,-0.3283,-0.3283,-0.3283,-0.3283,-0.2883,-0.2899,-0.2956,-0.3045,-0.3123,-0.3213,-0.3262,-0.3327,-0.3336,-0.3353,-0.3173,-0.317,-0.3094,-0.3328,-0.3328,-0.3328,-0.3328,-0.3328,-0.3328,-0.2775,-0.2841,-0.2857,-0.2974,-0.3009,-0.3098,-0.3225,-0.3246,-0.3214,-0.3184,-0.3181,-0.3082,-0.3305,-0.3287,-0.3327,-0.3328,-0.3328,-0.3328,-0.3328,-0.2652,-0.2693,-0.2712,-0.2745,-0.2849,-0.2858,-0.3037,-0.3013,-0.3049,-0.2979,-0.2882,-0.3084,-0.3045,-0.305,-0.3025,-0.2996,-0.2996,-0.2996,-0.2996,-0.2527,-0.2569,-0.2541,-0.2561,-0.262,-0.273,-0.2633,-0.2659,-0.2663,-0.2612,-0.2713,-0.2652,-0.2668,-0.2608,-0.2623,-0.259,-0.2452,-0.2452,-0.2451,-0.24,-0.2436,-0.2352,-0.2426,-0.2491,-0.2527,-0.2369,-0.2288,-0.233,-0.2433,-0.2662,-0.2685,-0.2608,-0.264,-0.2554,-0.2581,-0.2531,0,0]},{"header":{"parameterUnit":"m.s-1","parameterCategory":2,"la1":30.2992,"la2":30.254,"lo1":-89.0895,"lo2":-89.0443,"dy":0.0025,"dx":0.0025,"nx":19,"ny":19,"refTime":"2026-05-17T21:00:00:Z","depth":"0","parameterNumber":3,"parameterNumberName":"V-component_of_CURRENTS"},"data":[0,0,0,-0.0398,-0.0396,-0.0274,-0.0273,-0.0086,-0.0085,0,0,0,0,0,0,0,0,0,0,0,-0.0443,-0.0443,-0.0398,-0.0396,-0.0274,-0.0273,-0.0087,-0.0085,0,0,0,0,0,0,0,0,0,0,0,-0.0444,-0.0443,-0.0443,-0.0396,-0.0274,-0.0273,-0.0087,-0.0182,0,0,0,0,0,0,0,0,0,0,-0.0303,-0.0362,-0.0443,-0.0443,-0.0395,-0.0274,-0.0273,-0.0187,-0.0176,-0.0139,0,-0.0135,0,-0.0112,-0.0073,-0.0073,0,0,0,-0.0376,-0.0371,-0.0335,-0.0443,-0.0394,-0.0274,-0.0323,-0.0181,-0.0169,-0.0125,-0.0133,-0.0125,-0.0109,-0.0072,-0.0071,0.0033,0.0033,0,0,-0.0383,-0.0417,-0.0344,-0.0328,-0.0381,-0.0327,-0.032,-0.0174,-0.017,-0.0132,-0.0121,-0.0106,-0.0071,-0.007,0.0033,0.0033,0,0,0,-0.0416,-0.0422,-0.0389,-0.0336,-0.032,-0.0324,-0.0316,-0.0176,-0.0165,-0.0119,-0.0104,-0.007,-0.0068,0.0034,0.0033,-0.0086,0,0,0,-0.0419,-0.0442,-0.0393,-0.0411,-0.0323,-0.0252,-0.0322,-0.0175,-0.0158,-0.0105,-0.007,-0.0066,0.0034,0.0033,-0.0082,-0.013,0,0,0,-0.0446,-0.0445,-0.0436,-0.0414,-0.0369,-0.0254,-0.0234,-0.0171,-0.0149,-0.0073,-0.0066,0.0034,0.0034,-0.0079,-0.0125,-0.0063,0,0,0,-0.0476,-0.0508,-0.0437,-0.0466,-0.037,-0.0335,-0.0235,-0.0191,-0.0137,-0.0069,0.0034,0.0033,-0.0078,-0.0121,-0.0061,0.0048,0.0048,0,0,-0.0541,-0.0516,-0.0534,-0.0469,-0.0478,-0.0349,-0.0328,-0.0214,-0.0123,-0.0008,-0.0005,-0.0084,-0.0124,-0.0063,0.0031,0.0032,0,0,0,-0.0572,-0.0589,-0.0579,-0.0562,-0.0499,-0.0426,-0.0309,-0.0237,-0.0132,-0.0094,-0.0056,-0.0077,-0.0034,0.0036,0.0037,0.0327,0.0032,0.0032,0.0032,-0.0696,-0.0665,-0.0698,-0.0648,-0.0609,-0.0473,-0.0401,-0.0272,-0.0192,-0.0161,-0.0154,-0.0164,-0.0093,-0.0091,0.0205,-0.0132,-0.0132,-0.0132,-0.0133,-0.0816,-0.0842,-0.0786,-0.0809,-0.0707,-0.0662,-0.0477,-0.0394,-0.0258,-0.0218,-0.0169,-0.007,-0.0097,0.0219,-0.014,-0.0139,-0.0138,-0.0137,-0.0137,-0.0908,-0.0919,-0.0919,-0.0932,-0.0892,-0.0767,-0.0676,-0.0531,-0.0361,-0.0331,-0.0151,-0.0147,0.0122,-0.0281,-0.0281,-0.0281,-0.0281,-0.0281,-0.0281,-0.1004,-0.1004,-0.1058,-0.1054,-0.1055,-0.0993,-0.0784,-0.0651,-0.0393,-0.025,-0.0247,0.0169,-0.0207,-0.0211,-0.0281,-0.0281,-0.0281,-0.0281,-0.0281,-0.1121,-0.1111,-0.1203,-0.1227,-0.1219,-0.114,-0.0951,-0.0586,-0.0408,-0.0246,0.0253,-0.0157,-0.0083,-0.0081,-0.0078,-0.011,-0.011,-0.011,-0.011,-0.119,-0.1196,-0.1307,-0.1359,-0.1365,-0.1208,-0.0905,-0.0497,0.0088,0.0415,0.0485,0.0557,0.0537,0.0653,0.0638,0.0658,0.0814,0.0816,0.0817,-0.1254,-0.1286,-0.1367,-0.1414,-0.1425,-0.1238,-0.0863,-0.0265,0.0559,0.0881,0.0868,0.0829,0.0957,0.0903,0.1099,0.1056,0.1092,0,0]}],[{"header":{"parameterUnit":"m.s-1","parameterCategory":2,"la1":30.2992,"la2":30.254,"lo1":-89.0895,"lo2":-89.0443,"dy":0.0025,"dx":0.0025,"nx":19,"ny":19,"refTime":"2026-05-17T21:00:00:Z","depth":"2","parameterNumber":2,"parameterNumberName":"U-component_of_CURRENTS"},"data":[0,0,0,-0.2859,-0.2861,-0.2942,-0.2942,-0.297,-0.297,0,0,0,0,0,0,0,0,0,0,0,-0.2813,-0.2814,-0.2859,-0.2861,-0.2942,-0.2942,-0.297,-0.297,0,0,0,0,0,0,0,0,0,0,0,-0.2813,-0.2814,-0.2814,-0.2862,-0.2942,-0.2942,-0.297,-0.2925,0,0,0,0,0,0,0,0,0,0,-0.2855,-0.2821,-0.2814,-0.2814,-0.2862,-0.2942,-0.2942,-0.2924,-0.2928,-0.2914,0,-0.2924,0,-0.2958,-0.2971,-0.2971,0,0,0,-0.2851,-0.2818,-0.2851,-0.2814,-0.2863,-0.2942,-0.2903,-0.2927,-0.2931,-0.2919,-0.2925,-0.2927,-0.2959,-0.2971,-0.2971,-0.3024,-0.3024,0,0,-0.2847,-0.2817,-0.2848,-0.2854,-0.2879,-0.29,-0.2905,-0.293,-0.2924,-0.2925,-0.2929,-0.2959,-0.2971,-0.2971,-0.3024,-0.3024,0,0,0,-0.2841,-0.2814,-0.2847,-0.2851,-0.2878,-0.2903,-0.2909,-0.2923,-0.2937,-0.2929,-0.296,-0.2971,-0.2971,-0.3023,-0.3024,-0.3057,0,0,0,-0.2838,-0.2812,-0.2845,-0.2827,-0.2878,-0.2912,-0.29,-0.2935,-0.294,-0.296,-0.2971,-0.2971,-0.3023,-0.3023,-0.3055,-0.3062,0,0,0,-0.2811,-0.2809,-0.282,-0.2826,-0.2869,-0.2913,-0.2928,-0.2937,-0.2958,-0.2971,-0.2971,-0.3022,-0.3023,-0.3053,-0.3059,-0.3044,0,0,0,-0.2776,-0.2799,-0.2818,-0.2858,-0.2868,-0.2945,-0.2928,-0.2972,-0.2986,-0.2971,-0.3023,-0.3024,-0.3053,-0.3057,-0.3043,-0.2831,-0.2819,0,0,-0.2792,-0.2799,-0.2828,-0.285,-0.2923,-0.2934,-0.3002,-0.3007,-0.2997,-0.3006,-0.3008,-0.3056,-0.3059,-0.3043,-0.2895,-0.2881,0,0,0,-0.2827,-0.2839,-0.2866,-0.2913,-0.2971,-0.3015,-0.3037,-0.3042,-0.3056,-0.3014,-0.3069,-0.307,-0.3059,-0.293,-0.2919,-0.3029,-0.3029,-0.3029,-0.3029,-0.2777,-0.2838,-0.2883,-0.2955,-0.3005,-0.3071,-0.3101,-0.3109,-0.3095,-0.3108,-0.3108,-0.3133,-0.2998,-0.2987,-0.3124,-0.3124,-0.3124,-0.3124,-0.3124,-0.2785,-0.2803,-0.2886,-0.295,-0.3018,-0.3071,-0.3145,-0.315,-0.3168,-0.3155,-0.3142,-0.2985,-0.2976,-0.3127,-0.3127,-0.3126,-0.3126,-0.3126,-0.3125,-0.273,-0.2744,-0.2802,-0.2888,-0.2966,-0.3055,-0.3101,-0.3166,-0.3179,-0.3194,-0.3011,-0.3008,-0.3127,-0.3171,-0.3171,-0.3171,-0.3171,-0.3171,-0.3171,-0.2628,-0.2691,-0.2709,-0.2823,-0.2857,-0.2944,-0.3068,-0.3086,-0.3053,-0.3023,-0.3021,-0.3148,-0.3147,-0.313,-0.317,-0.317,-0.317,-0.317,-0.3171,-0.2513,-0.2552,-0.257,-0.2604,-0.2702,-0.2695,-0.2876,-0.2847,-0.2882,-0.281,-0.2913,-0.2919,-0.2878,-0.2883,-0.2859,-0.2828,-0.2828,-0.2828,-0.2828,-0.2395,-0.2435,-0.2406,-0.2423,-0.2472,-0.2565,-0.244,-0.2423,-0.2502,-0.2484,-0.2499,-0.2439,-0.246,-0.2393,-0.241,-0.2376,-0.2219,-0.2218,-0.2217,-0.2275,-0.2308,-0.2225,-0.2292,-0.2342,-0.2354,-0.2144,-0.1931,-0.1949,-0.2198,-0.2441,-0.2778,-0.2728,-0.2746,-0.2675,-0.269,-0.2649,0,0]},{"header":{"parameterUnit":"m.s-1","parameterCategory":2,"la1":30.2992,"la2":30.254,"lo1":-89.0895,"lo2":-89.0443,"dy":0.0025,"dx":0.0025,"nx":19,"ny":19,"refTime":"2026-05-17T21:00:00:Z","depth":"2","parameterNumber":3,"parameterNumberName":"V-component_of_CURRENTS"},"data":[0,0,0,-0.0431,-0.0429,-0.0308,-0.0308,-0.012,-0.0118,0,0,0,0,0,0,0,0,0,0,0,-0.0476,-0.0475,-0.0431,-0.0429,-0.0308,-0.0308,-0.012,-0.0118,0,0,0,0,0,0,0,0,0,0,0,-0.0476,-0.0475,-0.0475,-0.0429,-0.0308,-0.0307,-0.0121,-0.0215,0,0,0,0,0,0,0,0,0,0,-0.0335,-0.0394,-0.0475,-0.0475,-0.0428,-0.0309,-0.0307,-0.022,-0.0209,-0.0172,0,-0.0167,0,-0.0145,-0.0107,-0.0106,0,0,0,-0.0409,-0.0403,-0.0367,-0.0475,-0.0427,-0.0309,-0.0357,-0.0214,-0.0202,-0.0157,-0.0165,-0.0158,-0.0142,-0.0106,-0.0105,0.0007,0.0007,0,0,-0.0416,-0.0449,-0.0376,-0.0361,-0.0413,-0.0361,-0.0354,-0.0207,-0.0203,-0.0164,-0.0153,-0.0139,-0.0105,-0.0103,0.0007,0.0007,0,0,0,-0.0448,-0.0454,-0.0422,-0.0368,-0.0352,-0.0358,-0.0349,-0.0209,-0.0199,-0.0151,-0.0136,-0.0104,-0.0102,0.0008,0.0007,-0.0108,0,0,0,-0.0451,-0.0474,-0.0426,-0.0443,-0.0356,-0.0286,-0.0356,-0.0209,-0.0191,-0.0137,-0.0104,-0.01,0.0008,0.0008,-0.0105,-0.0164,0,0,0,-0.0478,-0.0477,-0.0468,-0.0446,-0.0402,-0.0288,-0.0267,-0.0204,-0.0183,-0.0106,-0.0099,0.0008,0.0008,-0.0102,-0.0158,-0.0108,0,0,0,-0.0507,-0.0534,-0.0469,-0.0492,-0.0403,-0.0362,-0.0268,-0.0221,-0.0167,-0.0103,0.0008,0.0007,-0.0101,-0.0154,-0.0106,-0.001,-0.0011,0,0,-0.0565,-0.0542,-0.0556,-0.0496,-0.0498,-0.0376,-0.0353,-0.024,-0.015,-0.0034,-0.0031,-0.0106,-0.0157,-0.0107,-0.0017,-0.0019,0,0,0,-0.059,-0.0606,-0.0594,-0.0576,-0.0512,-0.0444,-0.0329,-0.026,-0.0155,-0.012,-0.0076,-0.0104,-0.0068,-0.0005,-0.0007,0.0007,0.0007,0.0007,0.0007,-0.0705,-0.0674,-0.0702,-0.0653,-0.0614,-0.0484,-0.0416,-0.0293,-0.021,-0.0178,-0.0176,-0.0191,-0.0127,-0.0126,-0.0144,-0.0145,-0.0145,-0.0146,-0.0146,-0.0816,-0.0841,-0.0787,-0.0806,-0.0711,-0.0667,-0.0491,-0.0411,-0.0285,-0.0238,-0.0196,-0.0105,-0.0134,-0.0154,-0.0153,-0.0152,-0.0151,-0.015,-0.015,-0.0905,-0.0916,-0.0915,-0.0928,-0.0892,-0.0773,-0.0695,-0.0555,-0.0391,-0.0365,-0.02,-0.0197,-0.0243,-0.0319,-0.0319,-0.0319,-0.0319,-0.0319,-0.0319,-0.1,-0.0999,-0.1053,-0.105,-0.1054,-0.0998,-0.0808,-0.0686,-0.0446,-0.0307,-0.0304,-0.0247,-0.0241,-0.0248,-0.032,-0.032,-0.032,-0.032,-0.0319,-0.1116,-0.1107,-0.1198,-0.1224,-0.1222,-0.1166,-0.0981,-0.0647,-0.0483,-0.0332,-0.0225,-0.0227,-0.016,-0.0156,-0.0158,-0.0202,-0.0202,-0.0202,-0.0202,-0.1187,-0.1193,-0.1306,-0.1362,-0.1374,-0.1241,-0.1,-0.0634,-0.0302,-0.0147,-0.015,-0.0121,-0.0126,-0.0055,-0.0053,-0.0052,-0.0069,-0.0069,-0.0069,-0.1255,-0.1286,-0.1372,-0.142,-0.1437,-0.1292,-0.1014,-0.0557,-0.0135,-0.007,-0.0188,-0.0181,-0.0144,-0.0149,-0.004,-0.0039,-0.0036,0,0]}],[{"header":{"parameterUnit":"m.s-1","parameterCategory":2,"la1":30.2992,"la2":30.254,"lo1":-89.0895,"lo2":-89.0443,"dy":0.0025,"dx":0.0025,"nx":19,"ny":19,"refTime":"2026-05-17T21:00:00:Z","depth":"4","parameterNumber":2,"parameterNumberName":"U-component_of_CURRENTS"},"data":[0,0,0,-0.2122,-0.2126,-0.2328,-0.2329,-0.2454,-0.2454,0,0,0,0,0,0,0,0,0,0,0,-0.2051,-0.2052,-0.2121,-0.2126,-0.2328,-0.2329,-0.2453,-0.2454,0,0,0,0,0,0,0,0,0,0,0,-0.205,-0.2052,-0.2054,-0.2127,-0.2328,-0.2329,-0.2453,-0.2334,0,0,0,0,0,0,0,0,0,0,-0.2155,-0.2115,-0.2052,-0.2054,-0.2128,-0.2328,-0.2329,-0.233,-0.2342,-0.2324,0,-0.2363,0,-0.2409,-0.246,-0.246,0,0,0,-0.2128,-0.2105,-0.2154,-0.2054,-0.213,-0.2327,-0.2237,-0.2338,-0.2351,-0.2338,-0.2365,-0.2371,-0.2411,-0.246,-0.246,-0.2564,-0.2564,0,0,-0.2116,-0.209,-0.2145,-0.2162,-0.2191,-0.2231,-0.2244,-0.2347,-0.2363,-0.2366,-0.2375,-0.2413,-0.2461,-0.2461,-0.2563,-0.2564,0,0,0,-0.2084,-0.2082,-0.2132,-0.2156,-0.2202,-0.2237,-0.2251,-0.2359,-0.2375,-0.2377,-0.2415,-0.2461,-0.2462,-0.2563,-0.2564,-0.2602,0,0,0,-0.2077,-0.2063,-0.2127,-0.2114,-0.2201,-0.2304,-0.2261,-0.2368,-0.2382,-0.2414,-0.2461,-0.2463,-0.2562,-0.2563,-0.26,-0.2602,0,0,0,-0.204,-0.206,-0.2085,-0.2111,-0.2199,-0.2304,-0.2327,-0.2373,-0.2404,-0.246,-0.2463,-0.2562,-0.2563,-0.2598,-0.2599,-0.2581,0,0,0,-0.2003,-0.2046,-0.2084,-0.2153,-0.2197,-0.2318,-0.2327,-0.2427,-0.248,-0.2461,-0.2562,-0.2564,-0.2597,-0.2597,-0.258,-0.2254,0,0,0,-0.203,-0.2049,-0.209,-0.2128,-0.2236,-0.2289,-0.2401,-0.2475,-0.2488,-0.2517,-0.2521,-0.2601,-0.2599,-0.2581,-0.2335,0,0,0,0,-0.208,-0.2108,-0.2148,-0.2227,-0.2315,-0.2402,-0.2484,-0.2512,-0.2578,-0.2527,-0.2617,-0.2614,-0.2601,-0.2409,-0.257,-0.257,-0.257,-0.2569,-0.2569,-0.2053,-0.212,-0.2192,-0.2284,-0.2367,-0.2489,-0.2552,-0.2602,-0.2614,-0.265,-0.2658,-0.2688,-0.2489,-0.268,-0.268,-0.2681,-0.2681,-0.2681,-0.2681,-0.2067,-0.2094,-0.2209,-0.2305,-0.241,-0.251,-0.2618,-0.2652,-0.2703,-0.2708,-0.2693,-0.248,-0.2685,-0.2684,-0.2684,-0.2683,-0.2683,-0.2683,-0.2682,-0.201,-0.2029,-0.2125,-0.2259,-0.239,-0.2521,-0.2579,-0.2679,-0.2721,-0.274,-0.2502,-0.2699,-0.2678,-0.2727,-0.2727,-0.2727,-0.2727,-0.2727,-0.2727,-0.1888,-0.1983,-0.2045,-0.2208,-0.2285,-0.2402,-0.256,-0.2573,-0.265,-0.2498,-0.274,-0.2702,-0.2701,-0.2681,-0.2727,-0.2727,-0.2727,-0.2727,-0.2727,-0.177,-0.1836,-0.1898,-0.1976,-0.213,-0.219,-0.2395,-0.235,-0.2328,-0.2239,-0.2352,-0.237,-0.2313,-0.2321,-0.2285,-0.2216,-0.2211,-0.2207,0,-0.1657,-0.1706,-0.1747,-0.1805,-0.1849,-0.2038,-0.1938,-0.1999,-0.2057,-0.1989,-0.2325,-0.2455,-0.2465,-0.2406,-0.2406,-0.2365,0,0,0,-0.1555,-0.1595,-0.1564,-0.1665,-0.1703,-0.1742,-0.1892,-0.1818,-0.2072,-0.195,-0.2105,-0.2132,-0.2506,-0.2725,-0.2682,-0.268,-0.2644,0,0]},{"header":{"parameterUnit":"m.s-1","parameterCategory":2,"la1":30.2992,"la2":30.254,"lo1":-89.0895,"lo2":-89.0443,"dy":0.0025,"dx":0.0025,"nx":19,"ny":19,"refTime":"2026-05-17T21:00:00:Z","depth":"4","parameterNumber":3,"parameterNumberName":"V-component_of_CURRENTS"},"data":[0,0,0,-0.0347,-0.0345,-0.0263,-0.0262,-0.0099,-0.0097,0,0,0,0,0,0,0,0,0,0,0,-0.0378,-0.0378,-0.0347,-0.0345,-0.0263,-0.0262,-0.0099,-0.0097,0,0,0,0,0,0,0,0,0,0,0,-0.0378,-0.0378,-0.0378,-0.0345,-0.0263,-0.0262,-0.0099,-0.0172,0,0,0,0,0,0,0,0,0,0,-0.0257,-0.0306,-0.0378,-0.0378,-0.0345,-0.0263,-0.0262,-0.0175,-0.0167,-0.0125,0,-0.0128,0,-0.0114,-0.0087,-0.0086,0,0,0,-0.0327,-0.0314,-0.0289,-0.0378,-0.0344,-0.0263,-0.0295,-0.0171,-0.0161,-0.0114,-0.0126,-0.012,-0.0111,-0.0086,-0.0085,0.0029,0.0029,0,0,-0.0331,-0.0357,-0.0296,-0.0284,-0.0341,-0.0298,-0.0293,-0.0166,-0.0163,-0.0125,-0.0116,-0.0109,-0.0085,-0.0084,0.0029,0.0029,0,0,0,-0.0357,-0.0361,-0.034,-0.029,-0.0283,-0.0296,-0.029,-0.0169,-0.0162,-0.0114,-0.0107,-0.0084,-0.0082,0.0029,0.0029,-0.0078,0,0,0,-0.0359,-0.0377,-0.0343,-0.0356,-0.0286,-0.0234,-0.0296,-0.0171,-0.0156,-0.0108,-0.0084,-0.008,0.0029,0.0029,-0.0075,-0.0138,0,0,0,-0.0378,-0.0379,-0.0375,-0.0358,-0.033,-0.0236,-0.0221,-0.0167,-0.0152,-0.0086,-0.008,0.0029,0.0029,-0.0073,-0.0132,-0.0115,0,0,0,-0.0398,-0.0415,-0.0376,-0.039,-0.0331,-0.0295,-0.0222,-0.0182,-0.0134,-0.0083,0.0029,0.0029,-0.0072,-0.0129,-0.0112,-0.0112,0,0,0,-0.0432,-0.042,-0.0428,-0.0391,-0.039,-0.0303,-0.0283,-0.0192,-0.0112,-0.0005,-0.0002,-0.0076,-0.0132,-0.0114,-0.0101,0,0,0,0,-0.0447,-0.046,-0.045,-0.0441,-0.0392,-0.0352,-0.0258,-0.0204,-0.0116,-0.0085,-0.0042,-0.0074,-0.0059,-0.005,0.003,0.003,0.003,0.003,0.003,-0.0524,-0.0503,-0.0526,-0.0495,-0.0467,-0.0377,-0.0331,-0.0234,-0.0155,-0.0129,-0.0136,-0.0165,-0.0159,-0.0096,-0.0097,-0.0097,-0.0097,-0.0098,-0.0098,-0.0597,-0.0617,-0.0594,-0.0614,-0.0558,-0.053,-0.0399,-0.0337,-0.0245,-0.019,-0.0169,-0.0134,-0.0108,-0.0106,-0.0104,-0.0103,-0.0102,-0.0102,-0.0101,-0.0655,-0.0666,-0.0682,-0.0715,-0.0712,-0.0633,-0.0593,-0.0483,-0.0349,-0.0338,-0.0261,-0.0214,-0.0231,-0.0307,-0.0308,-0.0308,-0.0308,-0.0308,-0.0308,-0.0711,-0.0726,-0.0791,-0.0817,-0.0845,-0.0827,-0.0704,-0.0619,-0.0476,-0.0381,-0.0358,-0.0234,-0.0227,-0.024,-0.0312,-0.0311,-0.0311,-0.031,-0.031,-0.0781,-0.0794,-0.0892,-0.0942,-0.0991,-0.0963,-0.0861,-0.065,-0.0559,-0.0448,-0.0368,-0.0364,-0.0314,-0.0305,-0.0319,-0.0417,-0.0417,-0.0417,0,-0.0828,-0.0842,-0.0976,-0.1059,-0.1094,-0.1032,-0.0894,-0.0758,-0.0568,-0.057,-0.0574,-0.0495,-0.0487,-0.0442,-0.0433,-0.0457,0,0,0,-0.0878,-0.0913,-0.1014,-0.1093,-0.1133,-0.0959,-0.085,-0.0768,-0.0606,-0.048,-0.0424,-0.0422,-0.0396,-0.0321,-0.0235,-0.0227,-0.0242,0,0]}]]